DW4230 Weather Reports


time (UTC)temp
C
wind
direction
speed
KPH
gust
KPH
rain 1hr
cm
rain 24hr
cm
rain mn
cm
humidity
%
barometer
mb
20260906190050 19 39 3.2 16.1 0.00 0.00 0.00 71 1012.7
20260906184519 19 28 4.8 12.9 0.00 0.00 0.00 74 1012.6
20260906183102 20 60 8.0 19.3 0.00 0.00 0.00 73 1012.6
20260906181537 19 61 9.7 19.3 0.00 0.00 0.00 73 1012.7
20260906180056 18 60 11.3 19.3 0.00 0.00 0.00 74 1012.9
20260906174516 19 89 9.7 17.7 0.00 0.00 0.00 72 1012.9
20260906173041 20 62 4.8 16.1 0.00 0.00 0.00 70 1012.9
20260906171509 19 18 4.8 19.3 0.00 0.00 0.00 71 1013.0
20260906170051 20 29 11.3 24.1 0.00 0.00 0.00 68 1013.0
20260906164515 19 91 11.3 19.3 0.00 0.00 0.00 70 1013.0
20260906151541 19 53 9.7 27.4 0.00 0.00 0.00 74 1013.2
20260906150010 18 33 9.7 19.3 0.00 0.00 0.00 78 1013.2
20260906144539 18 5 9.7 20.9 0.00 0.00 0.00 81 1013.3
20260906143001 18 8 9.7 20.9 0.00 0.00 0.00 82 1013.3
20260906141532 18 11 11.3 24.1 0.00 0.00 0.00 79 1013.3
20260906140011 18 19 4.8 20.9 0.00 0.00 0.00 82 1013.4
20260906134552 18 16 8.0 17.7 0.00 0.00 0.00 82 1013.4
20260906133017 18 19 8.0 20.9 0.00 0.00 0.00 82 1013.3
20260906131555 17 35 8.0 16.1 0.00 0.00 0.00 82 1013.3
20260906130028 17 24 6.4 12.9 0.00 0.00 0.00 84 1013.3
20260906124606 17 39 6.4 14.5 0.00 0.00 0.00 85 1013.1
20260906123036 16 16 6.4 14.5 0.00 0.00 0.00 87 1013.1
20260906121600 16 44 8.0 14.5 0.00 0.00 0.00 87 1013.1
20260906120012 16 60 9.7 17.7 0.00 0.00 0.00 87 1012.9
20260906114608 16 73 8.0 14.5 0.00 0.00 0.00 87 1012.7
20260906113019 16 33 9.7 17.7 0.00 0.00 0.00 88 1012.5
20260906111620 16 33 8.0 16.1 0.00 0.00 0.00 88 1012.4
20260906110023 16 36 6.4 14.5 0.00 0.00 0.00 87 1012.4
20260906104612 16 43 8.0 24.1 0.00 0.00 0.00 87 1012.2
20260906103152 16 53 6.4 17.7 0.00 0.00 0.00 89 1012.0
20260906101507 16 23 9.7 17.7 0.00 0.00 0.00 89 1011.7
20260906100044 16 75 6.4 20.9 0.00 0.00 0.00 90 1011.6
20260906094509 16 41 6.4 16.1 0.00 0.00 0.00 89 1011.4
20260906093049 16 35 6.4 16.1 0.00 0.00 0.00 89 1011.2
20260906091509 16 43 6.4 14.5 0.00 0.00 0.00 89 1011.0
20260906090104 16 81 6.4 14.5 0.00 0.00 0.00 89 1011.0
20260906084519 16 63 6.4 12.9 0.00 0.00 0.00 89 1010.8
20260906083056 16 79 4.8 16.1 0.00 0.00 0.00 89 1010.8
20260906081542 16 30 8.0 20.9 0.00 0.00 0.00 89 1010.6
20260906080104 17 25 9.7 19.3 0.00 0.00 0.00 89 1010.5
20260906074535 17 27 6.4 19.3 0.00 0.00 0.00 89 1010.6
20260906073111 17 23 6.4 16.1 0.00 0.00 0.00 89 1010.5
20260906071527 17 53 6.4 20.9 0.00 0.00 0.00 89 1010.5
20260906070137 17 44 11.3 22.5 0.00 0.00 0.00 88 1010.6
20260906064527 17 56 9.7 20.9 0.00 0.00 0.00 89 1010.6
20260906063057 17 37 8.0 17.7 0.00 0.00 0.00 88 1010.5
20260906061526 17 19 4.8 14.5 0.00 0.00 0.00 88 1010.6
20260906054527 17 21 4.8 12.9 0.00 0.00 0.00 89 1010.8
20260906053059 17 23 3.2 12.9 0.00 0.00 0.00 88 1010.9
20260906051526 17 21 6.4 12.9 0.00 0.00 0.00 88 1011.1
20260906050116 17 360 8.0 12.9 0.00 0.00 0.00 89 1011.0
20260906044539 17 18 6.4 12.9 0.00 0.00 0.00 89 1010.9
20260906043112 17 349 3.2 11.3 0.00 0.00 0.00 89 1010.8
20260906041542 17 21 1.6 11.3 0.00 0.00 0.00 89 1010.7
20260906040009 17 358 3.2 11.3 0.00 0.00 0.00 88 1010.7
20260906034553 17 8 3.2 9.7 0.00 0.00 0.00 88 1010.8
20260906024536 17 6 3.2 9.7 0.00 0.00 0.00 87 1010.7
20260906023131 17 2 4.8 12.9 0.00 0.00 0.00 87 1010.7
20260906021524 17 19 1.6 8.0 0.00 0.00 0.00 87 1010.7
20260906020107 17 42 3.2 12.9 0.00 0.00 0.00 87 1010.6
20260906014543 17 25 1.6 11.3 0.00 0.00 0.00 87 1010.7
20260906013004 17 46 3.2 11.3 0.00 0.00 0.00 87 1010.7
20260906011552 17 51 0.0 9.7 0.00 0.00 0.00 87 1010.7
20260906010009 17 58 3.2 9.7 0.00 0.00 0.00 87 1010.6
20260906004600 17 58 1.6 9.7 0.00 0.00 0.00 86 1010.5
20260906003012 17 52 3.2 12.9 0.00 0.00 0.00 86 1010.4
20260906001550 17 31 4.8 9.7 0.00 0.00 0.00 86 1010.1
20260906000017 17 45 3.2 8.0 0.00 0.00 0.00 86 1010.0
20260905234556 17 66 1.6 8.0 0.00 0.00 0.00 85 1010.0
20260905233013 17 63 1.6 9.7 0.00 0.00 0.00 84 1010.1
20260905231536 17 52 4.8 14.5 0.00 0.00 0.00 83 1010.1
20260905230109 18 53 8.0 20.9 0.00 0.00 0.00 82 1010.1
20260905224538 18 102 6.4 12.9 0.00 0.00 0.00 83 1010.2
20260905223102 18 71 8.0 16.1 0.00 0.00 0.00 82 1010.0
20260905221536 18 54 9.7 19.3 0.00 0.00 0.00 82 1010.1
20260905220118 18 64 11.3 27.4 0.00 0.00 0.00 81 1009.6
20260905214526 19 74 12.9 25.7 0.00 0.00 0.00 81 1009.4
20260905213054 19 33 11.3 24.1 0.00 0.00 0.00 81 1009.0
20260905211523 20 37 8.0 20.9 0.00 0.00 0.00 79 1008.9
20260905210104 20 78 8.0 22.5 0.00 0.00 0.00 80 1008.7
20260905204525 20 101 11.3 24.1 0.00 0.00 0.00 80 1008.5
20260905203051 20 93 8.0 29.0 0.00 0.00 0.00 82 1008.4
20260905201507 21 15 6.4 20.9 0.00 0.00 0.00 80 1008.2
20260905200052 21 63 12.9 20.9 0.00 0.00 0.00 79 1008.1
20260905194505 21 79 8.0 24.1 0.00 0.00 0.00 79 1008.1
20260905193043 21 79 8.0 20.9 0.00 0.00 0.00 80 1008.2
20260905191507 21 72 11.3 22.5 0.00 0.00 0.00 77 1008.1